Roseburg, OR

7:35 AM PST on February 20, 2017 (GMT -0800)
Roseburg Regional

Weather History for KRBG - January, 2014

Change the Weather History Date:

Tuesday, January 21, 2014

  Actual Average Record
Temperature  
Mean Temperature 42 °F 44 °F  
Max Temperature 51 °F 50 °F 62 °F (2016)
Min Temperature 33 °F 37 °F 1 °F (1962)
Degree Days  
Heating Degree Days 23 22  
Month to date heating degree days 468 469  
Since 1 July heating degree days 2251 2109  
Cooling Degree Days 0 0  
Month to date cooling degree days 0 0  
Year to date cooling degree days 0 0  
Moisture  
Dew Point 35 °F    
Average Humidity 82    
Maximum Humidity 100    
Minimum Humidity 63    
Precipitation  
Precipitation 0.00 in 0.13 in 1.77 in (1943)
Month to date precipitation 1.28 3.91  
Year to date precipitation 1.28 3.91  
Sea Level Pressure  
Sea Level Pressure 30.33 in    
Wind  
Wind Speed 1 mph (WSW)    
Max Wind Speed 7 mph    
Max Gust Speed 9 mph    
Visibility 3 miles    
Events Fog    
T = Trace of Precipitation, MM = Missing Value Source: NWS Daily Summary

Daily Weather History Graph

Daily Weather History Graph

Search for Another Location

Airport or City:

Trip Planner

Search our weather history database for the weather conditions in past years. The results will help you decide how hot, cold, wet, or windy it might be!

Date:

Astronomy

Jan. 21, 2014 Rise Set
Actual Time 7:38 AM PST 5:11 PM PST
Civil Twilight 7:07 AM PST 5:42 PM PST
Nautical Twilight 6:32 AM PST 6:17 PM PST
Astronomical Twilight 5:59 AM PST 6:51 PM PST
Moon 11:00 PM PST (1/21) 10:01 AM PST (1/21)
Length of Visible Light 10h 34m
Length of Day
9h 32m
Waning Gibbous, 73% of the Moon is Illuminated
Jan 21
Waning Gibbous
Jan 23
Last Quarter
Jan 30
New
Feb 6
First Quarter
Feb 14
Full

Hourly Weather History & Observations

Time (PST) Temp. Windchill Dew Point Humidity Pressure Visibility Wind Dir Wind Speed Gust Speed Precip Events Conditions
12:53 AM 36.0 °F - 34.0 °F 93% 30.30 in 0.2 mi Calm Calm - N/A Fog Fog
1:53 AM 35.1 °F - 34.0 °F 96% 30.30 in 0.2 mi Calm Calm - N/A Fog Fog
2:24 AM 35.1 °F 32.2 °F 33.1 °F 92% 30.29 in 0.2 mi NNE 3.5 mph - N/A Fog Fog
2:53 AM 35.1 °F - 33.1 °F 92% 30.31 in 0.2 mi Calm Calm - N/A Fog Fog
3:53 AM 35.1 °F - 32.0 °F 89% 30.32 in 0.2 mi Calm Calm - N/A Fog Fog
4:53 AM 35.1 °F - 33.1 °F 92% 30.31 in 0.2 mi Calm Calm - N/A Fog Fog
5:53 AM 34.0 °F - 32.0 °F 92% 30.31 in 0.2 mi Calm Calm - N/A Fog Fog
6:53 AM 34.0 °F - 32.0 °F 92% 30.32 in 0.2 mi Calm Calm - N/A Fog Fog
7:53 AM 33.1 °F - 32.0 °F 96% 30.33 in 0.2 mi Calm Calm - N/A Fog Fog
8:53 AM 33.1 °F - 32.0 °F 96% 30.35 in 0.2 mi Calm Calm - N/A Fog Fog
9:53 AM 34.0 °F - 33.1 °F 96% 30.36 in 0.2 mi Calm Calm - N/A Fog Fog
10:53 AM 36.0 °F 33.3 °F 35.1 °F 97% 30.36 in 0.5 mi SW 3.5 mph - N/A Fog Fog
11:37 AM 37.0 °F 32.4 °F 35.1 °F 93% 30.34 in 0.2 mi WSW 5.8 mph - N/A Fog Fog
11:53 AM 37.0 °F - 35.1 °F 93% 30.35 in 0.2 mi Calm Calm - N/A Fog Fog
12:23 PM 39.0 °F 35.7 °F 37.0 °F 93% 30.32 in 1.0 mi SW 4.6 mph - N/A   Overcast
12:39 PM 39.0 °F 36.8 °F 37.0 °F 93% 30.32 in 2.0 mi SW 3.5 mph - N/A   Mostly Cloudy
12:46 PM 39.0 °F - 37.0 °F 93% 30.32 in 1.5 mi Calm Calm - N/A   Overcast
12:53 PM 39.0 °F - 37.0 °F 93% 30.32 in 2.0 mi Calm Calm - N/A   Mostly Cloudy
1:03 PM 41.0 °F 39.0 °F 37.9 °F 89% 30.31 in 4.0 mi SW 3.5 mph - N/A   Scattered Clouds
1:53 PM 45.0 °F - 39.0 °F 80% 30.31 in 8.0 mi Calm Calm - N/A   Clear
2:53 PM 50.0 °F - 39.0 °F 66% 30.29 in 10.0 mi SSW 3.5 mph - N/A   Clear
3:53 PM 51.1 °F - 39.0 °F 63% 30.28 in 10.0 mi Calm Calm - N/A   Clear
4:53 PM 48.9 °F - 37.9 °F 66% 30.28 in 10.0 mi WSW 3.5 mph - N/A   Clear
5:53 PM 45.0 °F - 39.0 °F 80% 30.29 in 9.0 mi Calm Calm - N/A   Clear
6:53 PM 42.1 °F 40.2 °F 37.0 °F 82% 30.33 in 6.0 mi NW 3.5 mph - N/A   Haze
7:53 PM 44.1 °F - 37.9 °F 79% 30.36 in 10.0 mi Calm Calm - N/A   Clear
8:53 PM 37.0 °F - 35.1 °F 93% 30.37 in 4.0 mi Calm Calm - N/A   Clear
9:53 PM 37.0 °F - 34.0 °F 89% 30.38 in 4.0 mi Calm Calm - N/A   Clear
10:53 PM 36.0 °F - 33.1 °F 89% 30.39 in 7.0 mi Calm Calm - N/A   Scattered Clouds
11:53 PM 35.1 °F - 32.0 °F 89% 30.38 in 3.0 mi Calm Calm - N/A   Clear